FW6482 Weather Reports


Display with metric or nautical units.
time (UTC)temp
F
wind
direction
speed
MPH
gust
MPH
rain 1hr
in
rain 24hr
in
rain mn
in
humidity
%
barometer
mb
20260831134519 70 246 4.0 9.0 0.02 0.14 0.14 74 1009.6
20260831133020 70 240 5.0 12.0 0.13 0.14 0.14 79 1009.7
20260831131516 66 234 3.0 10.0 0.13 0.14 0.14 89 1009.5
20260831130015 64 219 5.0 12.0 0.13 0.14 0.14 90 1009.8
20260831124518 64 213 9.0 25.0 0.11 0.12 0.12 81 1010.3
20260831123011 70 261 7.0 14.0 0.00 0.01 0.01 63 1009.4
20260831121510 70 186 8.0 14.0 0.00 0.01 0.01 63 1009.3
20260831120011 70 237 7.0 12.0 0.00 0.01 0.01 65 1009.5
20260831114509 70 223 5.0 14.0 0.01 0.01 0.01 67 1009.6
20260831113009 69 225 7.0 16.0 0.01 0.01 0.01 71 1009.8
20260831111508 67 242 6.0 11.0 0.01 0.01 0.01 81 1009.7
20260831110007 66 219 8.0 25.0 0.01 0.01 0.01 76 1009.8
20260831104507 70 236 9.0 20.0 0.00 0.00 0.00 61 1009.4
20260831103006 69 215 6.0 16.0 0.00 0.00 0.00 62 1009.3
20260831101509 70 206 9.0 17.0 0.00 0.00 0.00 60 1009.2
20260831100004 70 232 8.0 19.0 0.00 0.00 0.00 61 1009.3
20260831094502 69 249 8.0 17.0 0.00 0.00 0.00 65 1009.3
20260831093100 69 219 8.0 15.0 0.00 0.00 0.00 67 1009.4
20260831091604 68 230 9.0 18.0 0.00 0.00 0.00 67 1009.7
20260831090058 69 211 9.0 26.0 0.00 0.00 0.00 61 1009.4
20260831084600 69 256 7.0 15.0 0.00 0.00 0.00 60 1009.4
20260831083053 69 209 10.0 21.0 0.00 0.00 0.00 61 1009.4
20260831081600 69 214 9.0 16.0 0.00 0.00 0.00 63 1009.6
20260831080113 68 218 10.0 20.0 0.00 0.00 0.00 68 1009.3
20260831074550 67 244 6.0 14.0 0.00 0.00 0.00 72 1009.3
20260831073108 67 207 7.0 15.0 0.00 0.00 0.00 75 1009.3
20260831071550 66 225 6.0 11.0 0.00 0.00 0.00 77 1009.3
20260831070039 65 210 4.0 10.0 0.00 0.00 0.00 80 1009.4
20260831064541 64 172 5.0 11.0 0.00 0.00 0.00 83 1009.3
20260831063042 63 207 3.0 8.0 0.00 0.00 0.00 83 1009.3
20260831061535 63 186 3.0 8.0 0.00 0.00 0.00 84 1009.2
20260831060034 62 186 5.0 7.0 0.00 0.00 0.00 86 1009.1
20260831054530 61 203 3.0 6.0 0.00 0.00 0.00 87 1009.0
20260831053025 61 205 3.0 5.0 0.00 0.00 0.00 87 1009.0
20260831051525 61 209 2.0 5.0 0.00 0.00 0.00 86 1009.1
20260831050017 61 214 3.0 6.0 0.00 0.00 0.00 85 1009.1
20260831044516 61 217 3.0 7.0 0.00 0.00 0.00 85 1008.9
20260831043014 61 217 4.0 8.0 0.00 0.00 0.00 86 1008.8
20260831041513 61 182 4.0 7.0 0.00 0.00 0.00 87 1008.6
20260831040012 61 212 4.0 7.0 0.00 0.00 0.00 88 1008.6
20260831034511 61 217 4.0 8.0 0.00 0.00 0.00 88 1008.6
20260831033010 62 210 4.0 8.0 0.00 0.00 0.00 89 1008.6
20260831031509 62 221 5.0 9.0 0.00 0.00 0.00 88 1008.5
20260831030009 63 232 4.0 9.0 0.00 0.00 0.00 87 1008.6
20260831024505 63 217 5.0 10.0 0.00 0.00 0.00 87 1008.5
20260831023002 63 217 4.0 10.0 0.00 0.00 0.00 86 1008.5
20260831021503 64 219 5.0 12.0 0.00 0.00 0.00 84 1008.6
20260831014557 65 220 6.0 11.0 0.00 0.00 0.00 79 1008.3
20260831013105 65 236 6.0 14.0 0.00 0.00 0.00 78 1008.3
20260831011554 65 198 7.0 11.0 0.00 0.00 0.00 76 1008.4
20260831010116 65 198 4.0 9.0 0.00 0.00 0.00 74 1008.1
20260831004558 65 189 4.0 9.0 0.00 0.00 0.00 72 1008.5
20260831003102 65 213 5.0 10.0 0.00 0.00 0.00 72 1008.6
20260831001548 65 188 6.0 11.0 0.00 0.00 0.00 72 1008.6
20260831000047 65 198 3.0 8.0 0.00 0.00 0.00 72 1008.6
20260830234546 65 196 5.0 7.0 0.00 0.00 0.00 72 1008.6
20260830233043 65 212 4.0 9.0 0.00 0.00 0.00 73 1008.7
20260830231545 64 223 4.0 8.0 0.00 0.00 0.00 73 1008.8
20260830230041 64 203 3.0 7.0 0.00 0.00 0.00 73 1008.8
20260830224542 64 203 3.0 6.0 0.00 0.00 0.00 73 1008.8
20260830223038 64 203 3.0 6.0 0.00 0.00 0.00 72 1008.9
20260830221536 64 204 3.0 6.0 0.00 0.00 0.00 72 1009.2
20260830220038 64 202 3.0 6.0 0.00 0.00 0.00 72 1009.2
20260830214534 65 201 3.0 6.0 0.00 0.00 0.00 72 1009.3
20260830213033 65 200 4.0 7.0 0.00 0.00 0.00 71 1009.3
20260830211533 65 207 3.0 6.0 0.00 0.00 0.00 71 1009.3
20260830210033 65 207 2.0 4.0 0.00 0.00 0.00 70 1009.4
20260830204535 66 207 2.0 4.0 0.00 0.00 0.00 69 1009.4
20260830203031 66 207 1.0 4.0 0.00 0.00 0.00 68 1009.3
20260830201530 67 207 2.0 4.0 0.00 0.00 0.00 68 1009.5
20260830200030 67 257 1.0 3.0 0.00 0.00 0.00 67 1009.6
20260830194530 67 257 0.0 2.0 0.00 0.00 0.00 65 1009.7
20260830193029 68 257 1.0 4.0 0.00 0.00 0.00 64 1009.8
20260830191531 68 257 1.0 3.0 0.00 0.00 0.00 63 1009.7
20260830190028 69 257 1.0 2.0 0.00 0.00 0.00 61 1009.8
20260830184527 70 257 1.0 2.0 0.00 0.00 0.00 60 1009.8
20260830183027 70 257 1.0 3.0 0.00 0.00 0.00 60 1009.8
20260830181527 71 257 1.0 3.0 0.00 0.00 0.00 59 1009.9
20260830180029 71 257 1.0 3.0 0.00 0.00 0.00 58 1009.9
20260830174543 71 257 2.0 7.0 0.00 0.00 0.00 58 1010.0
20260830173026 72 239 3.0 7.0 0.00 0.00 0.00 57 1009.9
20260830171524 72 236 3.0 7.0 0.00 0.00 0.00 56 1009.9
20260830170024 73 249 3.0 11.0 0.00 0.00 0.00 55 1010.0
20260830164527 74 277 4.0 12.0 0.00 0.00 0.00 53 1010.0
20260830163030 74 245 4.0 9.0 0.00 0.00 0.00 53 1010.2
20260830161522 74 242 4.0 10.0 0.00 0.00 0.00 53 1010.1
20260830160022 74 232 5.0 10.0 0.00 0.00 0.00 51 1010.0
20260830154522 74 221 4.0 12.0 0.00 0.00 0.00 52 1010.1
20260830153030 75 226 5.0 12.0 0.00 0.00 0.00 51 1010.1
20260830151532 75 207 6.0 11.0 0.00 0.00 0.00 51 1010.1
20260830150020 76 235 4.0 13.0 0.00 0.00 0.00 51 1010.1
20260830144520 76 245 6.0 13.0 0.00 0.00 0.00 50 1010.2
20260830143018 76 215 5.0 13.0 0.00 0.00 0.00 49 1010.3
20260830141518 76 246 7.0 12.0 0.00 0.00 0.00 48 1010.3
20260830140017 77 251 5.0 15.0 0.00 0.00 0.00 48 1010.3